Location: Poughquag
(41.6090°N, 73.6820°W)
Time: 23:30:03
(UTC-05:00)

Tiros 1 despin weight - Pass Details

Date: 16 December 2023
Orbit: 581 x 624 km, 48.2° (Epoch: 21 February)

Event Time Altitude Azimuth Distance (km) Brightness Sun altitude
Rises 19:28:49 0° 295° (WNW) 2,805 ? -33.3°
Reaches altitude 10° 19:31:10 10° 289° (WNW) 1,899 ? -33.7°
Enters shadow 19:32:38 20° 280° (W) 1,376 ? -34.0°
